Weather History for PABV - July, 2013

Change the Weather History Date:

Friday, July 5, 2013

  Actual Average Record
Temperature  
Mean Temperature 56 °F -  
Max Temperature 62 °F 65 °F 75 °F (1990)
Min Temperature 51 °F 49 °F 44 °F (1996)
Degree Days  
Heating Degree Days 8    
Growing Degree Days 6 (Base 50)    
Moisture  
Dew Point 49 °F    
Average Humidity 79    
Maximum Humidity 94    
Minimum Humidity 55    
Precipitation  
Precipitation 0.00 in - - ()
Sea Level Pressure  
Sea Level Pressure 30.07 in    
Wind  
Wind Speed 1 mph (ENE)    
Max Wind Speed 6 mph    
Max Gust Speed -    
Visibility 10 miles    
Events      
Averages and records for this station are not official NWS values.
T = Trace of Precipitation, MM = Missing Value Source: NWS Daily Summary

Daily Weather History Graph

Daily Weather History Graph

Search for Another Location

Airport or City:

Trip Planner

Search our weather history database for the weather conditions in past years. The results will help you decide how hot, cold, wet, or windy it might be!

Date:

Astronomy

Jul. 05, 2013 Rise Set
Actual Time 4:29 AM AKDT 11:34 PM AKDT
Civil Twilight 2:35 AM AKDT 1:30 AM AKDT
Nautical Twilight Sun does not rise Sun does not rise
Astronomical Twilight Sun does not rise Sun does not rise
Moon 3:03 AM AKDT (7/5) 9:13 PM AKDT (7/5)
Length of Visible Light 22h 55m
Length of Day
19h 05m
Waning Crescent, 5% of the Moon is Illuminated
Jul 5
Waning Crescent
Jul 7
New
Jul 15
First Quarter
Jul 22
Full
Jul 29
Last Quarter

Hourly Weather History & Observations

Time (AKDT) Temp. Dew Point Humidity Pressure Visibility Wind Dir Wind Speed Gust Speed Precip Events Conditions
12:16 AM 53.6 °F 51.8 °F 94% 30.08 in 10.0 mi Calm Calm - N/A   Overcast
12:36 AM 53.6 °F 51.8 °F 94% 30.08 in 10.0 mi Calm Calm - N/A   Overcast
12:56 AM 53.6 °F 51.8 °F 94% 30.08 in 10.0 mi Calm Calm - N/A   Overcast
1:16 AM 51.8 °F 50.0 °F 94% 30.08 in 10.0 mi Calm Calm - N/A   Overcast
1:36 AM 53.6 °F 50.0 °F 88% 30.09 in 10.0 mi Calm Calm - N/A   Overcast
1:56 AM 51.8 °F 50.0 °F 94% 30.08 in 10.0 mi Calm Calm - N/A   Overcast
2:16 AM 51.8 °F 48.2 °F 88% 30.08 in 10.0 mi Calm Calm - N/A   Overcast
2:36 AM 51.8 °F 48.2 °F 88% 30.09 in 10.0 mi SE 3.5 mph - N/A   Overcast
2:56 AM 51.8 °F 48.2 °F 88% 30.09 in 10.0 mi Calm Calm - N/A   Overcast
3:16 AM 51.8 °F 48.2 °F 88% 30.09 in 10.0 mi ESE 3.5 mph - N/A   Overcast
3:36 AM 51.8 °F 48.2 °F 88% 30.08 in 10.0 mi SE 3.5 mph - N/A   Overcast
3:56 AM 51.8 °F 48.2 °F 88% 30.09 in 10.0 mi Calm Calm - N/A   Overcast
4:16 AM 51.8 °F 48.2 °F 88% 30.09 in 10.0 mi SE 3.5 mph - N/A   Overcast
4:36 AM 51.8 °F 48.2 °F 88% 30.09 in 10.0 mi Calm Calm - N/A   Overcast
4:56 AM 51.8 °F 48.2 °F 88% 30.09 in 10.0 mi Calm Calm - N/A   Overcast
5:16 AM 51.8 °F 48.2 °F 88% 30.09 in 10.0 mi Calm Calm - N/A   Overcast
5:36 AM 51.8 °F 48.2 °F 88% 30.08 in 10.0 mi Calm Calm - N/A   Overcast
5:56 AM 51.8 °F 48.2 °F 88% 30.09 in 10.0 mi SSW 3.5 mph - N/A   Overcast
6:16 AM 51.8 °F 48.2 °F 88% 30.09 in 10.0 mi Calm Calm - N/A   Overcast
6:36 AM 51.8 °F 48.2 °F 88% 30.09 in 10.0 mi South 3.5 mph - N/A   Overcast
6:56 AM 51.8 °F 48.2 °F 88% 30.08 in 10.0 mi Calm Calm - N/A   Overcast
7:16 AM 53.6 °F 48.2 °F 82% 30.08 in 10.0 mi Calm Calm - N/A   Overcast
7:36 AM 51.8 °F 48.2 °F 88% 30.08 in 10.0 mi SSE 3.5 mph - N/A   Overcast
7:56 AM 53.6 °F 48.2 °F 82% 30.08 in 10.0 mi Calm Calm - N/A   Overcast
8:16 AM 53.6 °F 46.4 °F 77% 30.08 in 10.0 mi Calm Calm - N/A   Overcast
8:36 AM 53.6 °F 48.2 °F 82% 30.08 in 10.0 mi Calm Calm - N/A   Overcast
8:56 AM 51.8 °F 48.2 °F 88% 30.08 in 10.0 mi Calm Calm - N/A   Overcast
9:16 AM 51.8 °F 48.2 °F 88% 30.09 in 10.0 mi Calm Calm - N/A   Overcast
9:36 AM 51.8 °F 48.2 °F 88% 30.09 in 10.0 mi Calm Calm - N/A   Overcast
9:56 AM 51.8 °F 48.2 °F 88% 30.09 in 10.0 mi Calm Calm - N/A   Overcast
10:16 AM 51.8 °F 48.2 °F 88% 30.09 in 10.0 mi NE 3.5 mph - N/A   Overcast
10:36 AM 53.6 °F 50.0 °F 88% 30.09 in 10.0 mi North 4.6 mph - N/A   Overcast
10:56 AM 53.6 °F 48.2 °F 82% 30.08 in 10.0 mi North 4.6 mph - N/A   Overcast
11:16 AM 53.6 °F 48.2 °F 82% 30.08 in 10.0 mi NNE 3.5 mph - N/A   Overcast
11:36 AM 53.6 °F 48.2 °F 82% 30.08 in 10.0 mi NNE 3.5 mph - N/A   Overcast
11:56 AM 55.4 °F 48.2 °F 77% 30.08 in 10.0 mi Calm Calm - N/A   Overcast
12:16 PM 55.4 °F 48.2 °F 77% 30.08 in 10.0 mi Calm Calm - N/A   Overcast
12:36 PM 55.4 °F 48.2 °F 77% 30.08 in 10.0 mi Calm Calm - N/A   Overcast
12:56 PM 55.4 °F 48.2 °F 77% 30.08 in 10.0 mi Calm Calm - N/A   Overcast
1:16 PM 55.4 °F 50.0 °F 82% 30.08 in 10.0 mi Calm Calm - N/A   Overcast
1:36 PM 57.2 °F 46.4 °F 67% 30.08 in 10.0 mi Calm Calm - N/A   Overcast
1:56 PM 57.2 °F 46.4 °F 67% 30.08 in 10.0 mi Calm Calm - N/A   Overcast
2:16 PM 57.2 °F 46.4 °F 67% 30.08 in 10.0 mi Calm Calm - N/A   Overcast
2:36 PM 57.2 °F 48.2 °F 72% 30.07 in 10.0 mi North 3.5 mph - N/A   Overcast
2:56 PM 57.2 °F 48.2 °F 72% 30.07 in 10.0 mi Calm Calm - N/A   Overcast
3:16 PM 59.0 °F 46.4 °F 63% 30.07 in 10.0 mi Calm Calm - N/A   Overcast
3:36 PM 60.8 °F 46.4 °F 59% 30.06 in 10.0 mi NNE 3.5 mph - N/A   Overcast
3:56 PM 60.8 °F 46.4 °F 59% 30.06 in 10.0 mi NE 5.8 mph - N/A   Scattered Clouds
4:16 PM 60.8 °F 46.4 °F 59% 30.05 in 10.0 mi NNE 3.5 mph - N/A   Partly Cloudy
4:36 PM 60.8 °F 46.4 °F 59% 30.05 in 10.0 mi NW 3.5 mph - N/A   Mostly Cloudy
4:56 PM 60.8 °F 48.2 °F 63% 30.05 in 10.0 mi WNW 3.5 mph - N/A   Overcast
5:16 PM 60.8 °F 48.2 °F 63% 30.04 in 10.0 mi Calm Calm - N/A   Overcast
5:36 PM 60.8 °F 48.2 °F 63% 30.04 in 10.0 mi SW 3.5 mph - N/A   Overcast
5:56 PM 62.6 °F 46.4 °F 55% 30.03 in 10.0 mi WSW 3.5 mph - N/A   Overcast
6:16 PM 60.8 °F 46.4 °F 59% 30.03 in 10.0 mi Calm Calm - N/A   Overcast
6:36 PM 60.8 °F 46.4 °F 59% 30.03 in 10.0 mi Calm Calm - N/A   Overcast
6:56 PM 60.8 °F 46.4 °F 59% 30.03 in 10.0 mi WSW 3.5 mph - N/A   Overcast
7:16 PM 59.0 °F 46.4 °F 63% 30.03 in 10.0 mi Calm Calm - N/A   Overcast
7:36 PM 60.8 °F 46.4 °F 59% 30.03 in 10.0 mi Calm Calm - N/A   Overcast
7:56 PM 60.8 °F 48.2 °F 63% 30.03 in 10.0 mi Calm Calm - N/A   Overcast
8:16 PM 57.2 °F 48.2 °F 72% 30.03 in 10.0 mi Calm Calm - N/A   Overcast
8:36 PM 57.2 °F 48.2 °F 72% 30.03 in 10.0 mi Calm Calm - N/A   Overcast
8:56 PM 57.2 °F 51.8 °F 82% 30.03 in 10.0 mi ENE 3.5 mph - N/A   Overcast
9:16 PM 57.2 °F 51.8 °F 82% 30.03 in 10.0 mi NE 4.6 mph - N/A   Overcast
9:36 PM 57.2 °F 48.2 °F 72% 30.03 in 10.0 mi NE 5.8 mph - N/A   Overcast
9:56 PM 57.2 °F 50.0 °F 77% 30.04 in 10.0 mi Calm Calm - N/A   Overcast
10:16 PM 57.2 °F 50.0 °F 77% 30.04 in 10.0 mi Calm Calm - N/A   Overcast
10:36 PM 55.4 °F 51.8 °F 88% 30.04 in 10.0 mi Calm Calm - N/A   Overcast
10:56 PM 55.4 °F 51.8 °F 88% 30.05 in 10.0 mi Calm Calm - N/A   Overcast
11:16 PM 55.4 °F 51.8 °F 88% 30.05 in 10.0 mi Calm Calm - N/A   Overcast
11:36 PM 55.4 °F 51.8 °F 88% 30.05 in 10.0 mi ESE 3.5 mph - N/A   Overcast
11:56 PM 55.4 °F 51.8 °F 88% 30.05 in 10.0 mi ESE 3.5 mph - N/A   Overcast